Davenport, IA

3:59 PM CST on February 07, 2016 (GMT -0600)
Davenport Municipal

Weather History for KDVN - January, 2012

Change the Weather History Date:

Thursday, January 26, 2012

  Actual Average Record
Temperature  
Mean Temperature 34 °F 22 °F  
Max Temperature 38 °F 30 °F 57 °F (2002)
Min Temperature 30 °F 13 °F -10 °F (1982)
Degree Days  
Heating Degree Days 31 43  
Month to date heating degree days 998 1142  
Since 1 July heating degree days 3232 3722  
Cooling Degree Days 0 0  
Month to date cooling degree days 0 0  
Year to date cooling degree days 0 0  
Moisture  
Dew Point 29 °F    
Average Humidity 84    
Maximum Humidity 92    
Minimum Humidity 75    
Precipitation  
Precipitation T in 0.07 in 0.45 in (1962)
Month to date precipitation 0.63 0.84  
Year to date precipitation 0.63 0.84  
Snow  
Snow 0.00 in - - ()
Month to date snowfall 10.2  
Since 1 July snowfall 12.0  
Snow Depth 0.00 in    
Sea Level Pressure  
Sea Level Pressure 29.82 in    
Wind  
Wind Speed 7 mph (SW)    
Max Wind Speed 14 mph    
Max Gust Speed 17 mph    
Visibility 3 miles    
Events Fog    
T = Trace of Precipitation, MM = Missing Value Source: NWS Daily Summary

Daily Weather History Graph

Daily Weather History Graph

Search for Another Location

Airport or City:

Trip Planner

Search our weather history database for the weather conditions in past years. The results will help you decide how hot, cold, wet, or windy it might be!

Date:

Astronomy

Jan. 26, 2012 Rise Set
Actual Time 7:20 AM CST 5:09 PM CST
Civil Twilight 6:50 AM CST 5:39 PM CST
Nautical Twilight 6:16 AM CST 6:13 PM CST
Astronomical Twilight 5:43 AM CST 6:46 PM CST
Moon 8:44 AM CST (1/26) 9:06 PM CST (1/26)
Length of Visible Light 10h 49m
Length of Day
9h 49m
Waxing Crescent, 12% of the Moon is Illuminated
Jan 26
Waxing Crescent
Jan 30
First Quarter
Feb 7
Full
Feb 14
Last Quarter
Feb 21
New

Hourly Weather History & Observations

Time (CST) Temp. Windchill Dew Point Humidity Pressure Visibility Wind Dir Wind Speed Gust Speed Precip Events Conditions
12:32 AM 30.2 °F 24.3 °F 26.6 °F 86% 30.01 in 3.0 mi South 5.8 mph - N/A   Overcast
12:42 AM 30.2 °F 24.3 °F 26.6 °F 86% 30.01 in 2.5 mi South 5.8 mph - N/A   Overcast
12:52 AM 30.0 °F 23.2 °F 27.0 °F 88% 30.03 in 2.5 mi South 6.9 mph - N/A   Overcast
1:52 AM 30.0 °F 26.5 °F 27.0 °F 88% 30.00 in 2.5 mi SE 3.5 mph - N/A   Overcast
2:52 AM 30.9 °F 26.2 °F 27.0 °F 85% 29.98 in 3.0 mi SE 4.6 mph - N/A   Overcast
3:52 AM 30.9 °F 25.2 °F 27.0 °F 85% 29.95 in 3.0 mi SSE 5.8 mph - N/A   Overcast
4:45 AM 30.2 °F 25.4 °F 28.4 °F 93% 29.90 in 2.5 mi ESE 4.6 mph - N/A   Overcast
4:52 AM 30.9 °F 26.2 °F 28.0 °F 89% 29.92 in 3.0 mi ESE 4.6 mph - N/A   Overcast
5:37 AM 30.2 °F 23.4 °F 28.4 °F 93% 29.89 in 3.0 mi SE 6.9 mph - N/A   Overcast
6:20 AM 30.2 °F - 28.4 °F 93% 29.88 in 2.5 mi Calm Calm - N/A   Overcast
6:29 AM 30.2 °F - 28.4 °F 93% 29.88 in 2.5 mi Calm Calm - N/A   Overcast
6:37 AM 30.2 °F - 28.4 °F 93% 29.89 in 2.5 mi Calm Calm - N/A   Overcast
6:52 AM 32.0 °F - 28.9 °F 88% 29.92 in 2.5 mi Calm Calm - N/A   Overcast
7:02 AM 32.0 °F - 28.4 °F 87% 29.89 in 1.8 mi Calm Calm - N/A   Overcast
7:42 AM 30.2 °F 25.4 °F 28.4 °F 93% 29.88 in 0.8 mi SE 4.6 mph - N/A   Overcast
7:52 AM 32.0 °F 26.4 °F 28.9 °F 88% 29.90 in 1.0 mi SE 5.8 mph - N/A   Overcast
8:52 AM 32.0 °F 28.7 °F 30.0 °F 92% 29.90 in 1.0 mi South 3.5 mph - N/A   Overcast
9:15 AM 33.8 °F 30.8 °F 30.2 °F 87% 29.86 in 1.2 mi SSW 3.5 mph - N/A   Overcast
9:24 AM 33.8 °F 30.8 °F 30.2 °F 87% 29.86 in 1.5 mi SSW 3.5 mph - N/A   Overcast
9:52 AM 33.1 °F 27.7 °F 28.9 °F 85% 29.86 in 1.5 mi South 5.8 mph - N/A   Overcast
10:35 AM 33.8 °F 27.7 °F 30.2 °F 87% 29.83 in 2.0 mi South 6.9 mph - N/A   Overcast
10:52 AM 34.0 °F 28.0 °F 30.9 °F 89% 29.85 in 2.5 mi South 6.9 mph - N/A   Overcast
11:25 AM 35.6 °F 29.9 °F 30.2 °F 81% 29.79 in 2.5 mi SSE 6.9 mph - N/A   Overcast
11:52 AM 35.1 °F 29.3 °F 30.9 °F 85% 29.81 in 2.5 mi South 6.9 mph - N/A   Overcast
12:35 PM 35.6 °F 30.7 °F 30.2 °F 81% 29.76 in 3.0 mi SSW 5.8 mph - N/A   Haze
12:42 PM 35.6 °F 29.9 °F 32.0 °F 87% 29.75 in 2.5 mi SW 6.9 mph - N/A   Overcast
12:52 PM 37.0 °F 32.4 °F 32.0 °F 82% 29.76 in 3.0 mi SW 5.8 mph - N/A   Haze
1:04 PM 37.4 °F 32.1 °F 32.0 °F 81% 29.73 in 2.0 mi SW 6.9 mph - N/A   Haze
1:18 PM 37.4 °F 31.4 °F 32.0 °F 81% 29.73 in 4.0 mi WSW 8.1 mph - N/A   Haze
1:52 PM 37.0 °F 29.8 °F 30.9 °F 79% 29.76 in 4.0 mi West 10.4 mph - N/A   Haze
2:35 PM 33.8 °F 25.3 °F 30.2 °F 87% 29.73 in 0.5 mi WNW 11.5 mph - N/A Fog Fog
2:44 PM 33.8 °F 25.3 °F 30.2 °F 87% 29.73 in 0.2 mi West 11.5 mph - N/A Fog Fog
2:52 PM 34.0 °F 26.6 °F 30.9 °F 89% 29.76 in 0.2 mi West 9.2 mph - N/A Fog Fog
3:50 PM 33.8 °F 27.0 °F 30.2 °F 87% 29.72 in 1.0 mi West 8.1 mph - N/A   Overcast
3:52 PM 34.0 °F 26.0 °F 30.9 °F 89% 29.75 in 1.0 mi West 10.4 mph - N/A   Overcast
5:07 PM 33.8 °F 30.8 °F 30.2 °F 87% 29.73 in 1.5 mi West 3.5 mph - N/A   Overcast
5:29 PM 32.0 °F 28.7 °F 30.2 °F 93% 29.72 in 2.0 mi West 3.5 mph - N/A   Overcast
5:52 PM 32.0 °F 28.7 °F 30.0 °F 92% 29.74 in 2.5 mi West 3.5 mph - N/A   Mostly Cloudy
6:52 PM 32.0 °F 26.4 °F 28.9 °F 88% 29.74 in 2.5 mi West 5.8 mph - N/A   Partly Cloudy
7:15 PM 32.0 °F 26.4 °F 28.4 °F 87% 29.72 in 3.0 mi West 5.8 mph - N/A   Clear
7:52 PM 32.0 °F 24.8 °F 28.0 °F 85% 29.75 in 5.0 mi West 8.1 mph - N/A   Scattered Clouds
8:52 PM 30.9 °F 22.2 °F 27.0 °F 85% 29.74 in 8.0 mi WNW 10.4 mph - N/A   Partly Cloudy
9:52 PM 33.1 °F 23.9 °F 28.9 °F 85% 29.74 in 10.0 mi WNW 12.7 mph - N/A   Overcast
10:31 PM 33.8 °F 25.3 °F 28.4 °F 81% 29.71 in 10.0 mi WNW 11.5 mph - N/A   Scattered Clouds
10:52 PM 33.1 °F 24.4 °F 27.0 °F 78% 29.74 in 9.0 mi WNW 11.5 mph - N/A   Clear
11:52 PM 32.0 °F 23.0 °F 26.1 °F 79% 29.75 in 10.0 mi WNW 11.5 mph - N/A   Clear